OEGSN LFSB-EGHQ

Flight info

Callsign OEGSN
Flight time 1h 43m
Altitude 34000
Route TORPA T10 ROBIR DCT RLP DCT ROTSI DCT KOTUN DCT NIDUV DCT SOSUN DCT SUBIP UM8 WAFFU Y8 SAM L620 GIBSO DCT DAWLY
Aircraft C25C/M-SDGRWY/S

Departure

Time 2026-04-20 16:15
Airport EuroAirport Basel–Mulhouse–Freiburg (LFSB)

Arrival

Time 2026-04-20 17:58
Airport Cornwall Airport Newquay (EGHQ)
Time Latitude Longitude Altitude Speed Heading
2026-04-20 16:07 47.59292 7.53696 880 ft 0 kts 174°
2026-04-20 16:13 47.59209 7.53691 879 ft 18 kts 224°
2026-04-20 16:13 47.59183 7.53531 880 ft 16 kts 255°
2026-04-20 16:14 47.59158 7.53377 880 ft 15 kts 257°
2026-04-20 16:14 47.59105 7.53272 882 ft 13 kts 187°
2026-04-20 16:14 47.59040 7.53198 885 ft 14 kts 244°
2026-04-20 16:14 47.59009 7.53046 885 ft 18 kts 256°
2026-04-20 16:15 47.59064 7.52867 885 ft 29 kts 328°
2026-04-20 16:15 47.59487 7.52586 893 ft 115 kts 338°
2026-04-20 16:15 47.60384 7.52012 1521 ft 157 kts 339°
2026-04-20 16:15 47.61353 7.51272 2711 ft 160 kts 335°
2026-04-20 16:16 47.62428 7.50543 3688 ft 175 kts 338°
2026-04-20 16:16 47.63534 7.49746 4882 ft 179 kts 335°
2026-04-20 16:16 47.64677 7.48966 6006 ft 182 kts 334°
2026-04-20 16:16 47.65831 7.48146 7123 ft 183 kts 333°
2026-04-20 16:17 47.66921 7.47172 8107 ft 192 kts 310°
2026-04-20 16:17 47.67574 7.45334 8774 ft 216 kts 284°
2026-04-20 16:17 47.67406 7.43113 9858 ft 220 kts 250°
2026-04-20 16:17 47.66461 7.41325 10914 ft 231 kts 216°
2026-04-20 16:18 47.64986 7.40072 11589 ft 257 kts 213°
2026-04-20 16:18 47.63362 7.38758 12215 ft 278 kts 212°
2026-04-20 16:18 47.61643 7.37396 13282 ft 280 kts 214°
2026-04-20 16:18 47.59928 7.35963 14235 ft 286 kts 214°
2026-04-20 16:19 47.58181 7.34513 15151 ft 289 kts 215°
2026-04-20 16:19 47.56411 7.33051 16061 ft 292 kts 215°
2026-04-20 16:19 47.54646 7.31598 16977 ft 295 kts 216°
2026-04-20 16:19 47.52867 7.30051 17898 ft 294 kts 223°
2026-04-20 16:20 47.51533 7.27843 18767 ft 286 kts 241°
2026-04-20 16:20 47.50701 7.25229 19622 ft 278 kts 260°
2026-04-20 16:20 47.50246 7.22433 20518 ft 281 kts 259°
2026-04-20 16:20 47.49762 7.19625 21431 ft 282 kts 261°
2026-04-20 16:21 47.49331 7.16818 22328 ft 285 kts 261°
2026-04-20 16:21 47.48866 7.13915 23244 ft 288 kts 261°
2026-04-20 16:21 47.48401 7.11061 24023 ft 291 kts 261°
2026-04-20 16:21 47.47923 7.08140 24694 ft 294 kts 261°
2026-04-20 16:22 47.47442 7.05178 25380 ft 297 kts 261°
2026-04-20 16:22 47.46960 7.02196 26061 ft 299 kts 261°
2026-04-20 16:22 47.46602 6.99181 26702 ft 297 kts 271°
2026-04-20 16:22 47.46691 6.96137 27344 ft 298 kts 276°
2026-04-20 16:23 47.46800 6.93073 27979 ft 299 kts 276°
2026-04-20 16:23 47.46945 6.89993 28609 ft 302 kts 276°
2026-04-20 16:23 47.47077 6.86908 29214 ft 304 kts 276°
2026-04-20 16:23 47.47209 6.83780 29792 ft 306 kts 275°
2026-04-20 16:24 47.47338 6.80630 30335 ft 307 kts 276°
2026-04-20 16:24 47.47467 6.77482 30854 ft 307 kts 275°
2026-04-20 16:24 47.47600 6.74325 31329 ft 308 kts 276°
2026-04-20 16:24 47.47727 6.71152 31803 ft 308 kts 275°
2026-04-20 16:25 47.47858 6.67976 32260 ft 309 kts 275°
2026-04-20 16:25 47.48009 6.64813 32753 ft 308 kts 278°
2026-04-20 16:25 47.48258 6.61715 33212 ft 308 kts 278°
2026-04-20 16:25 47.48478 6.58563 33657 ft 308 kts 278°
2026-04-20 16:26 47.48698 6.55399 33971 ft 312 kts 278°
2026-04-20 16:26 47.48933 6.52152 34029 ft 322 kts 278°
2026-04-20 16:26 47.49422 6.45366 34054 ft 340 kts 278°
2026-04-20 16:27 47.49926 6.38248 34056 ft 354 kts 277°
2026-04-20 16:27 47.50444 6.30880 34056 ft 365 kts 277°
2026-04-20 16:28 47.50965 6.23376 34054 ft 373 kts 277°
2026-04-20 16:28 47.51495 6.15675 34060 ft 379 kts 277°
2026-04-20 16:29 47.52029 6.07876 34059 ft 382 kts 278°
2026-04-20 16:29 47.53664 6.00474 34061 ft 380 kts 298°
2026-04-20 16:30 47.56844 5.94274 34065 ft 380 kts 307°
2026-04-20 16:30 47.60068 5.88106 34066 ft 376 kts 302°
2026-04-20 16:31 47.62559 5.82810 34064 ft 376 kts 303°
2026-04-20 16:31 47.65663 5.76562 34063 ft 375 kts 303°
2026-04-20 16:32 47.68718 5.70263 34074 ft 376 kts 303°
2026-04-20 16:32 47.71792 5.63961 34072 ft 377 kts 303°
2026-04-20 16:33 47.74845 5.57665 34072 ft 377 kts 303°
2026-04-20 16:33 47.77924 5.51309 34079 ft 378 kts 303°
2026-04-20 16:34 47.80993 5.44957 34067 ft 378 kts 303°
2026-04-20 16:34 47.84037 5.38644 34067 ft 378 kts 303°
2026-04-20 16:35 47.87096 5.32285 34073 ft 378 kts 303°
2026-04-20 16:35 47.90154 5.25916 34093 ft 378 kts 304°
2026-04-20 16:36 47.93654 5.19975 34078 ft 381 kts 309°
2026-04-20 16:36 47.97212 5.14087 34082 ft 382 kts 309°
2026-04-20 16:37 48.00791 5.08195 34075 ft 383 kts 309°
2026-04-20 16:37 48.04373 5.02267 34079 ft 384 kts 309°
2026-04-20 16:38 48.07938 4.96359 34080 ft 385 kts 309°
2026-04-20 16:38 48.11525 4.90402 34086 ft 385 kts 309°
2026-04-20 16:39 48.15126 4.84411 34109 ft 388 kts 310°
2026-04-20 16:39 48.18737 4.78387 34097 ft 389 kts 310°
2026-04-20 16:40 48.22347 4.72354 34100 ft 389 kts 310°
2026-04-20 16:40 48.25966 4.66288 34097 ft 390 kts 309°
2026-04-20 16:41 48.29567 4.60242 34103 ft 390 kts 309°
2026-04-20 16:41 48.33187 4.54146 34103 ft 391 kts 309°
2026-04-20 16:42 48.36802 4.48043 34107 ft 391 kts 309°
2026-04-20 16:42 48.40424 4.41918 34110 ft 391 kts 309°
2026-04-20 16:43 48.44037 4.35788 34108 ft 391 kts 309°
2026-04-20 16:43 48.47623 4.29694 34096 ft 391 kts 310°
2026-04-20 16:44 48.51226 4.23553 34110 ft 390 kts 310°
2026-04-20 16:44 48.54821 4.17414 34119 ft 390 kts 310°
2026-04-20 16:45 48.58401 4.11287 34138 ft 389 kts 310°
2026-04-20 16:45 48.61957 4.05187 34131 ft 388 kts 310°
2026-04-20 16:46 48.65514 3.99069 34130 ft 386 kts 310°
2026-04-20 16:46 48.69055 3.92968 34130 ft 385 kts 310°
2026-04-20 16:47 48.72587 3.86863 34129 ft 384 kts 309°
2026-04-20 16:47 48.76020 3.80650 34126 ft 384 kts 309°
2026-04-20 16:48 48.79438 3.74485 34130 ft 383 kts 308°
2026-04-20 16:48 48.82851 3.68286 34131 ft 383 kts 308°
2026-04-20 16:49 48.86265 3.62081 34132 ft 383 kts 308°
2026-04-20 16:49 48.89676 3.55863 34132 ft 382 kts 308°
2026-04-20 16:50 48.93082 3.49642 34127 ft 382 kts 308°
2026-04-20 16:50 48.96484 3.43410 34127 ft 383 kts 308°
2026-04-20 16:51 48.99884 3.37170 34125 ft 383 kts 308°
2026-04-20 16:51 49.03281 3.30918 34141 ft 383 kts 308°
2026-04-20 16:52 49.06652 3.24702 34148 ft 382 kts 308°
2026-04-20 16:52 49.10033 3.18451 34150 ft 382 kts 308°
2026-04-20 16:53 49.13404 3.12202 34155 ft 381 kts 308°
2026-04-20 16:53 49.16776 3.05940 34141 ft 381 kts 308°
2026-04-20 16:54 49.20121 2.99714 34141 ft 380 kts 308°
2026-04-20 16:54 49.23486 2.93435 34140 ft 380 kts 308°
2026-04-20 16:55 49.26837 2.87170 34143 ft 380 kts 308°
2026-04-20 16:55 49.30183 2.80898 34159 ft 379 kts 308°
2026-04-20 16:56 49.33493 2.74682 34162 ft 378 kts 308°
2026-04-20 16:56 49.36849 2.68418 34162 ft 377 kts 309°
2026-04-20 16:57 49.40187 2.62265 34148 ft 377 kts 309°
2026-04-20 16:57 49.43526 2.56048 34154 ft 377 kts 309°
2026-04-20 16:58 49.46871 2.49825 34161 ft 378 kts 308°
2026-04-20 16:58 49.50214 2.43582 34203 ft 378 kts 308°
2026-04-20 16:59 49.53552 2.37333 34186 ft 377 kts 308°
2026-04-20 16:59 49.56856 2.31137 34186 ft 376 kts 308°
2026-04-20 17:00 49.61822 2.21793 34174 ft 375 kts 308°
2026-04-20 17:01 49.65127 2.15561 34178 ft 375 kts 308°
2026-04-20 17:01 49.68412 2.09350 34178 ft 375 kts 308°
2026-04-20 17:02 49.71713 2.03095 34178 ft 375 kts 308°
2026-04-20 17:02 49.75003 1.96842 34190 ft 375 kts 308°
2026-04-20 17:03 49.78292 1.90577 34193 ft 374 kts 308°
2026-04-20 17:03 49.81568 1.84319 34193 ft 374 kts 308°
2026-04-20 17:04 49.84834 1.78067 34184 ft 374 kts 308°
2026-04-20 17:04 49.88107 1.71791 34187 ft 373 kts 308°
2026-04-20 17:05 49.91347 1.65558 34185 ft 373 kts 308°
2026-04-20 17:05 49.94608 1.59273 34185 ft 373 kts 308°
2026-04-20 17:06 49.97862 1.52998 34203 ft 373 kts 308°
2026-04-20 17:06 50.01663 1.47453 34204 ft 375 kts 316°
2026-04-20 17:07 50.05604 1.42121 34213 ft 375 kts 316°
2026-04-20 17:07 50.09504 1.36798 34190 ft 375 kts 316°
2026-04-20 17:08 50.13417 1.31460 34200 ft 374 kts 316°
2026-04-20 17:08 50.17332 1.26103 34205 ft 374 kts 316°
2026-04-20 17:09 50.21246 1.20737 34217 ft 374 kts 316°
2026-04-20 17:09 50.25161 1.15355 34226 ft 374 kts 316°
2026-04-20 17:10 50.29066 1.09977 34226 ft 374 kts 316°
2026-04-20 17:10 50.32968 1.04591 34231 ft 374 kts 316°
2026-04-20 17:11 50.36866 0.99199 34232 ft 374 kts 316°
2026-04-20 17:11 50.40740 0.93827 34232 ft 374 kts 316°
2026-04-20 17:12 50.44377 0.88055 34232 ft 371 kts 304°
2026-04-20 17:12 50.46408 0.80653 34230 ft 373 kts 285°
2026-04-20 17:13 50.47502 0.72686 34233 ft 373 kts 285°
2026-04-20 17:13 50.49091 0.64963 34234 ft 371 kts 294°
2026-04-20 17:14 50.51358 0.57673 34238 ft 371 kts 296°
2026-04-20 17:14 50.53579 0.50333 34240 ft 371 kts 296°
2026-04-20 17:15 50.55797 0.43069 34227 ft 371 kts 296°
2026-04-20 17:15 50.58017 0.35740 34227 ft 371 kts 296°
2026-04-20 17:16 50.59940 0.28193 34223 ft 371 kts 293°
2026-04-20 17:16 50.61867 0.20655 34227 ft 371 kts 292°
2026-04-20 17:17 50.63753 0.13082 34231 ft 371 kts 292°
2026-04-20 17:17 50.65330 0.06785 34238 ft 372 kts 292°
2026-04-20 17:18 50.67222 -0.00810 34231 ft 373 kts 292°
2026-04-20 17:18 50.69420 -0.09666 34234 ft 372 kts 292°
2026-04-20 17:19 50.70997 -0.16041 34233 ft 372 kts 292°
2026-04-20 17:19 50.72863 -0.23609 34234 ft 372 kts 292°
2026-04-20 17:20 50.74735 -0.31230 34234 ft 372 kts 292°
2026-04-20 17:20 50.76599 -0.38845 34234 ft 372 kts 292°
2026-04-20 17:21 50.78460 -0.46473 34234 ft 372 kts 292°
2026-04-20 17:21 50.80313 -0.54098 34233 ft 372 kts 292°
2026-04-20 17:22 50.82164 -0.61736 34231 ft 371 kts 292°
2026-04-20 17:22 50.84006 -0.69371 34229 ft 371 kts 292°
2026-04-20 17:23 50.85771 -0.77044 34226 ft 372 kts 287°
2026-04-20 17:23 50.87117 -0.84900 34224 ft 372 kts 287°
2026-04-20 17:24 50.88479 -0.92835 34233 ft 373 kts 287°
2026-04-20 17:24 50.89831 -1.00755 34226 ft 372 kts 287°
2026-04-20 17:25 50.91179 -1.08683 34230 ft 372 kts 287°
2026-04-20 17:25 50.92519 -1.16600 34232 ft 372 kts 287°
2026-04-20 17:26 50.93856 -1.24536 34235 ft 372 kts 287°
2026-04-20 17:26 50.95108 -1.32455 34232 ft 374 kts 281°
2026-04-20 17:27 50.94796 -1.40744 34227 ft 385 kts 261°
2026-04-20 17:27 50.93087 -1.48855 34233 ft 388 kts 257°
2026-04-20 17:28 50.91676 -1.57061 34232 ft 384 kts 262°
2026-04-20 17:28 50.90279 -1.65262 34233 ft 386 kts 259°
2026-04-20 17:29 50.88846 -1.73475 34233 ft 386 kts 261°
2026-04-20 17:29 50.87440 -1.81626 34234 ft 386 kts 260°
2026-04-20 17:30 50.86003 -1.89843 34205 ft 386 kts 260°
2026-04-20 17:30 50.84572 -1.98028 34217 ft 386 kts 260°
2026-04-20 17:31 50.83130 -2.06223 34221 ft 387 kts 260°
2026-04-20 17:31 50.81681 -2.14431 34224 ft 387 kts 260°
2026-04-20 17:32 50.80225 -2.22633 34221 ft 387 kts 260°
2026-04-20 17:32 50.78760 -2.30844 34219 ft 388 kts 260°
2026-04-20 17:33 50.77298 -2.38990 34214 ft 388 kts 260°
2026-04-20 17:33 50.75819 -2.47214 34214 ft 390 kts 260°
2026-04-20 17:34 50.74322 -2.55485 33960 ft 395 kts 259°
2026-04-20 17:34 50.73561 -2.59658 33439 ft 395 kts 259°
2026-04-20 17:34 50.72805 -2.63819 32917 ft 394 kts 259°
2026-04-20 17:34 50.72043 -2.67984 32399 ft 394 kts 259°
2026-04-20 17:35 50.71287 -2.72140 31873 ft 394 kts 258°
2026-04-20 17:35 50.70531 -2.76240 31364 ft 394 kts 258°
2026-04-20 17:35 50.69772 -2.80401 30814 ft 394 kts 258°
2026-04-20 17:35 50.69005 -2.84551 30323 ft 394 kts 257°
2026-04-20 17:36 50.68244 -2.88699 29767 ft 393 kts 257°
2026-04-20 17:36 50.67475 -2.92832 29250 ft 392 kts 257°
2026-04-20 17:36 50.66714 -2.96962 28733 ft 392 kts 257°
2026-04-20 17:36 50.65944 -3.01090 28216 ft 393 kts 257°
2026-04-20 17:37 50.65177 -3.05239 27699 ft 393 kts 257°
2026-04-20 17:37 50.64411 -3.09321 27188 ft 393 kts 257°
2026-04-20 17:37 50.63642 -3.13459 26668 ft 394 kts 257°
2026-04-20 17:37 50.62860 -3.17604 26150 ft 395 kts 257°
2026-04-20 17:38 50.62084 -3.21764 25620 ft 395 kts 257°
2026-04-20 17:38 50.61314 -3.25840 25099 ft 381 kts 257°
2026-04-20 17:38 50.60575 -3.29776 24606 ft 370 kts 256°
2026-04-20 17:38 50.59845 -3.33634 24112 ft 366 kts 256°
2026-04-20 17:39 50.59122 -3.37479 23612 ft 365 kts 256°
2026-04-20 17:39 50.58392 -3.41306 23116 ft 363 kts 256°
2026-04-20 17:39 50.57672 -3.45112 22638 ft 362 kts 256°
2026-04-20 17:39 50.57204 -3.48979 22160 ft 359 kts 266°
2026-04-20 17:40 50.56932 -3.52888 21681 ft 360 kts 264°
2026-04-20 17:40 50.56598 -3.56801 21213 ft 361 kts 264°
2026-04-20 17:40 50.56278 -3.60731 20736 ft 362 kts 264°
2026-04-20 17:40 50.55966 -3.64618 20259 ft 364 kts 265°
2026-04-20 17:41 50.55654 -3.68570 19778 ft 365 kts 264°
2026-04-20 17:41 50.55326 -3.72543 19249 ft 367 kts 264°
2026-04-20 17:41 50.55003 -3.76532 18770 ft 368 kts 264°
2026-04-20 17:41 50.54671 -3.80520 18257 ft 368 kts 264°
2026-04-20 17:42 50.54346 -3.84506 17764 ft 367 kts 264°
2026-04-20 17:42 50.54018 -3.88480 17280 ft 366 kts 264°
2026-04-20 17:42 50.53688 -3.92453 16796 ft 366 kts 264°
2026-04-20 17:42 50.53355 -3.96410 16314 ft 365 kts 264°
2026-04-20 17:43 50.53031 -4.00304 15839 ft 352 kts 264°
2026-04-20 17:43 50.52711 -4.04062 15385 ft 342 kts 264°
2026-04-20 17:43 50.52406 -4.07726 14938 ft 335 kts 264°
2026-04-20 17:43 50.52097 -4.11333 14482 ft 332 kts 263°
2026-04-20 17:44 50.51798 -4.14888 14062 ft 331 kts 264°
2026-04-20 17:44 50.51492 -4.18469 13608 ft 330 kts 263°
2026-04-20 17:44 50.51187 -4.22033 13162 ft 329 kts 264°
2026-04-20 17:44 50.50879 -4.25597 12728 ft 328 kts 263°
2026-04-20 17:45 50.50572 -4.29169 12294 ft 329 kts 263°
2026-04-20 17:45 50.50261 -4.32726 11860 ft 329 kts 263°
2026-04-20 17:45 50.49956 -4.36272 11427 ft 324 kts 263°
2026-04-20 17:45 50.49652 -4.39738 11005 ft 317 kts 263°
2026-04-20 17:46 50.49356 -4.43136 10591 ft 311 kts 262°
2026-04-20 17:46 50.49060 -4.46484 10178 ft 308 kts 262°
2026-04-20 17:46 50.48771 -4.49795 9752 ft 305 kts 262°
2026-04-20 17:46 50.48476 -4.53073 9349 ft 302 kts 262°
2026-04-20 17:47 50.48193 -4.56328 8952 ft 300 kts 262°
2026-04-20 17:47 50.47901 -4.59526 8563 ft 299 kts 262°
2026-04-20 17:47 50.47614 -4.62763 8170 ft 299 kts 261°
2026-04-20 17:47 50.47328 -4.65940 7780 ft 286 kts 261°
2026-04-20 17:48 50.47060 -4.68969 7412 ft 276 kts 261°
2026-04-20 17:48 50.46796 -4.71906 7055 ft 269 kts 259°
2026-04-20 17:48 50.46532 -4.74796 6705 ft 267 kts 259°
2026-04-20 17:48 50.46270 -4.77684 6341 ft 266 kts 260°
2026-04-20 17:49 50.46007 -4.80558 5991 ft 265 kts 261°
2026-04-20 17:49 50.45752 -4.83420 5639 ft 264 kts 261°
2026-04-20 17:49 50.45490 -4.86238 5299 ft 265 kts 262°
2026-04-20 17:49 50.45229 -4.89098 4949 ft 265 kts 262°
2026-04-20 17:50 50.44965 -4.91961 4591 ft 266 kts 262°
2026-04-20 17:50 50.44703 -4.94836 4238 ft 265 kts 262°
2026-04-20 17:50 50.44433 -4.97701 3891 ft 265 kts 262°
2026-04-20 17:50 50.44305 -5.00563 3696 ft 259 kts 277°
2026-04-20 17:51 50.44589 -5.03295 3663 ft 250 kts 279°
2026-04-20 17:51 50.44803 -5.05988 3662 ft 248 kts 279°
2026-04-20 17:51 50.45062 -5.08664 3659 ft 248 kts 280°
2026-04-20 17:51 50.45292 -5.11349 3655 ft 248 kts 279°
2026-04-20 17:52 50.45534 -5.14033 3654 ft 250 kts 279°
2026-04-20 17:52 50.45766 -5.16745 3656 ft 251 kts 279°
2026-04-20 17:52 50.46011 -5.19465 3654 ft 251 kts 279°
2026-04-20 17:52 50.46236 -5.22076 3648 ft 239 kts 281°
2026-04-20 17:53 50.46880 -5.24376 3577 ft 230 kts 319°
2026-04-20 17:53 50.48221 -5.25558 3435 ft 216 kts 352°
2026-04-20 17:53 50.49645 -5.25363 3271 ft 204 kts 25°
2026-04-20 17:53 50.50753 -5.24081 3105 ft 198 kts 56°
2026-04-20 17:54 50.51278 -5.22118 2917 ft 198 kts 83°
2026-04-20 17:54 50.51115 -5.19978 2648 ft 195 kts 101°
2026-04-20 17:54 50.50866 -5.17969 2455 ft 181 kts 104°
2026-04-20 17:54 50.50317 -5.16273 2295 ft 172 kts 117°
2026-04-20 17:55 50.49758 -5.14627 2147 ft 169 kts 117°
2026-04-20 17:55 50.49155 -5.13062 2038 ft 163 kts 118°
2026-04-20 17:55 50.48599 -5.11561 1917 ft 159 kts 118°
2026-04-20 17:55 50.48052 -5.10104 1701 ft 153 kts 118°
2026-04-20 17:56 50.47518 -5.08691 1487 ft 148 kts 119°
2026-04-20 17:56 50.47014 -5.07337 1281 ft 137 kts 120°
2026-04-20 17:56 50.46547 -5.06087 1089 ft 127 kts 119°
2026-04-20 17:56 50.46119 -5.04983 922 ft 105 kts 120°
2026-04-20 17:57 50.45797 -5.04074 732 ft 89 kts 121°
2026-04-20 17:57 50.45472 -5.03285 564 ft 82 kts 118°
2026-04-20 17:57 50.45201 -5.02489 523 ft 85 kts 123°
2026-04-20 17:57 50.44865 -5.01630 455 ft 96 kts 120°
2026-04-20 17:58 50.44531 -5.00744 365 ft 90 kts 119°
2026-04-20 17:58 50.44249 -5.00000 332 ft 66 kts 121°
2026-04-20 17:58 50.44068 -4.99533 345 ft 19 kts 128°
2026-04-20 17:58 50.43980 -4.99505 347 ft 11 kts 181°
2026-04-20 17:59 50.43910 -4.99512 349 ft 9 kts 187°
2026-04-20 17:59 50.43869 -4.99536 353 ft 4 kts 271°
2026-04-20 17:59 50.43898 -4.99607 347 ft 11 kts 303°
2026-04-20 17:59 50.43958 -4.99757 346 ft 21 kts 302°
2026-04-20 18:00 50.44038 -4.99968 338 ft 24 kts 300°
2026-04-20 18:00 50.44131 -5.00209 332 ft 28 kts 309°
2026-04-20 18:00 50.44240 -5.00410 327 ft 18 kts 278°
2026-04-20 18:00 50.44203 -5.00612 322 ft 20 kts 248°
2026-04-20 18:01 50.44136 -5.00778 322 ft 14 kts 236°
2026-04-20 18:01 50.44096 -5.00789 322 ft 4 kts 151°
2026-04-20 18:01 50.44089 -5.00783 323 ft 0 kts 151°